Regional Weather Roundup
Issued by NWS

Home | Current Version | Previous Version | Text Only | Print | Product List | Glossary Off
Versions: 1 2 3 4 5 6 7 8 9 10 11 12 13 14 15 16 17 18 19 20 21 22 23 24 25 26 27 28 29 30 31 32 33 34 35 36 37 38 39 40 41 42 43 44 45 46 47 48 49 50

058
ASUS45 KBOU 300807
RWRCO

WEATHER ROUNDUP FOR COLORADO
NATIONAL WEATHER SERVICE DENVER/BOULDER CO
200 AM MDT MON MAY 30 2016

NOTE: "FAIR" INDICATES FEW OR NO CLOUDS BELOW 12000 FEET WITH NO
SIGNIFICANT WEATHER AND/OR OBSTRUCTIONS TO VISIBILITY.

COZ001>005-013-030-031-300900-
...NORTHWEST COLORADO...

CITY           SKY/WX    TMP DP  RH WIND       PRES   REMARKS
CRAIG          FAIR      46  38  73 E6        30.14F
HAYDEN         FAIR      45  36  70 E12       30.15S
MEEKER         FAIR      42  36  79 CALM      30.15F
MOUNT WERNER   NOT AVBL
STEAMBOAT SPGS FAIR      42  34  74 NW3       30.18F
WALDEN         NOT AVBL
$$

COZ006>008-011-300900-
...WEST CENTRAL VALLEYS...

CITY           SKY/WX    TMP DP  RH WIND       PRES   REMARKS
GRAND JUNCTION FAIR      53  37  54 SE5       30.04S
MONTROSE       FAIR      48  34  58 S6        30.12F
EAGLE          FAIR      45  36  70 CALM      30.21S
RIFLE          FAIR      46  36  68 SE3       30.11F
DELTA          FAIR      56  32  39 NE7       30.08F
NUCLA          FAIR      50  30  46 SE9       30.13F
$$

COZ017>023-064>068-300900-
...SOUTHWEST COLORADO...

CITY           SKY/WX    TMP DP  RH WIND       PRES   REMARKS
DURANGO        FAIR      43  27  53 CALM      30.13S
CORTEZ         FAIR      41  28  60 CALM      30.08F
PAGOSA SPRINGS FAIR      44  27  50 CALM      30.20F
TELLURIDE      FAIR      43  27  52 SE7       30.30F
WOLF CREEK PAS FAIR      36  25  64 NE7       30.47F
$$

COZ009-010-012-014-032>034-037-058>063-300900-
...CENTRAL COLORADO...

CITY           SKY/WX    TMP DP  RH WIND       PRES   REMARKS
ASPEN          FAIR      41  29  62 SW6       30.21F
BUENA VISTA    FAIR      42  28  58 NW3       30.26S
COPPER MTN     NOT AVBL
BERTHOUD PASS  FAIR      32  23  69 SW9       30.46F WCI  24
COTTONWOOD PAS FAIR      46  23  39 W8        30.34F
GUNNISON       FAIR      39  30  70 CALM      30.28S
KREMMLING      FAIR      37  34  87 NE5       30.25S
LEADVILLE      FAIR      30  25  81 CALM      30.34S
MONARCH PASS   FAIR      41  19  42 N9        30.55F
SALIDA         FAIR      44  31  60 SW5       30.32S
SUNLIGHT       FAIR      43  30  61 CALM      30.39F
WILKERSON PASS FAIR      37  28  70 S7        30.44F
$$

COZ069>075-300900-
...SAN LUIS VALLEY/SANGRE DE CRISTO MOUNTAINS...

CITY           SKY/WX    TMP DP  RH WIND       PRES   REMARKS
ALAMOSA        FAIR      43  38  82 SW3       30.21S
LA VETA PASS   FAIR      45  30  57 NE3       30.35F
SAGUACHE       FAIR      45  32  61 NW16      30.24S
$$

COZ035-036-038>040-300900-
...NORTHERN COLORADO FRONT RANGE...

CITY           SKY/WX    TMP DP  RH WIND       PRES   REMARKS
DENVER INTL AP FAIR      48  42  80 S14       30.10F
DMNS CITY PARK   N/A     53  43  68 SE12      30.10F
AURORA         PTCLDY    50  40  70 S8        30.12F
FRONT RANGE AP NOT AVBL
ERIE MUNI ARPT FAIR      46  42  84 CALM      30.09S
BOULDER MUN AP FAIR      54  37  54 SE3       30.09S
CENTENNIAL     FAIR      50  40  68 SE8       30.13F
BROOMFIELD     FAIR      50  43  76 SE6       30.13R
FORT COLLINS   FAIR      52  43  71 CALM      30.08F
LONGMONT       FAIR      52  44  74 W3        30.10F
$$

COZ041-046-047-076>085-087-088-300900-
...PIKES PEAK/PALMER DIVIDE AND SOUTHERN FOOTHILLS...

CITY           SKY/WX    TMP DP  RH WIND       PRES   REMARKS
COLO. SPRINGS  FAIR      49  41  74 N6        30.17F
A. F. ACADEMY  FAIR      41  39  93 N8        30.18F
SCHRIEVER AFB  NOT AVBL
ELLICOTT       FAIR     N/A N/A N/A E12       30.14F
FALCON         FAIR      44  38  79 W6        30.20F
FORT CARSON    FAIR      48  41  75 NW12      30.13F
LIMON          FAIR      44  43  96 CALM      30.13F
MONUMENT HILL  FAIR      43  36  75 SW7       30.21F
TRINIDAD       FAIR      55  44  66 W25G32    30.10F
$$

COZ042>045-048>051-090-091-300900-
...NORTHEAST COLORADO...

CITY           SKY/WX    TMP DP  RH WIND       PRES   REMARKS
GREELEY ARPT   FAIR      52  46  82 S5        30.09F
AKRON          FAIR      57  46  66 S8        30.07F
BURLINGTON     FAIR      52  48  86 SE9       30.11F
WRAY           FAIR      59  48  67 S6        30.09S
STERLING       FAIR      55  52  88 S8        30.04F
HOLYOKE        FAIR      59  50  72 S10       30.06F
FORT MORGAN    FAIR      51  46  80 W8        30.07F
$$

COZ086-089-092>099-300900-
...SOUTHEAST COLORADO...

CITY           SKY/WX    TMP DP  RH WIND       PRES   REMARKS
PUEBLO         FAIR      53  47  79 N9        30.08S
LA JUNTA       FAIR      55  46  71 E5        30.07F
LAMAR          FAIR      51  47  86 E8        30.05F
SPRINGFIELD      N/A     55  48  77 W9        30.07F
$$




USA.gov is the U.S. government's official web portal to all federal, state and local government web resources and services.